GW0484 Weather Reports


time (UTC)temp
C
wind
direction
speed
KPH
gust
KPH
rain 1hr
cm
rain 24hr
cm
rain mn
cm
humidity
%
barometer
mb
20260503013858 -17 109 4.8 4.8 0.00 0.00 0.00 1011.0
20260503013354 -17 90 3.2 3.2 0.00 0.00 0.00 1011.1
20260503012851 -17 84 6.4 9.7 0.00 0.00 0.00 1011.1
20260503012349 -17 66 6.4 8.0 0.00 0.00 0.00 1011.0
20260503011846 -17 88 4.8 8.0 0.00 0.00 0.00 1011.0
20260503011343 -17 83 0.0 0.0 0.00 0.00 0.00 1010.7
20260503010839 -17 42 1.6 3.2 0.00 0.00 0.00 1011.1
20260503010336 -17 116 0.0 0.0 0.00 0.00 0.00 1011.3
20260503005833 -17 148 0.0 0.0 0.00 0.00 0.00 1011.5
20260503005331 -17 128 0.0 0.0 0.00 0.00 0.00 1011.2
20260503004826 -17 111 0.0 0.0 0.00 0.00 0.00 1011.5
20260503004325 -17 107 0.0 0.0 0.00 0.00 0.00 1011.2
20260503003822 -17 88 3.2 3.2 0.00 0.00 0.00 1011.5
20260503003318 -17 96 4.8 4.8 0.00 0.00 0.00 1011.5
20260503002815 -17 79 4.8 4.8 0.00 0.00 0.00 1011.6
20260503002313 -17 93 0.0 1.6 0.00 0.00 0.00 1011.7
20260503001809 -17 90 0.0 0.0 0.00 0.00 0.00 1011.7
20260503001305 -17 106 0.0 0.0 0.00 0.00 0.00 1011.6
20260503000803 -17 99 0.0 1.6 0.00 0.00 0.00 1011.7
20260503000300 -17 99 0.0 0.0 0.00 0.00 0.00 1011.8
20260502235757 -17 96 0.0 0.0 0.00 0.00 0.00 1011.8
20260502235255 -17 14 6.4 8.0 0.00 0.00 0.00 1011.7
20260502234751 -17 53 8.0 9.7 0.00 0.00 0.00 1011.7
20260502234248 -17 79 4.8 4.8 0.00 0.00 0.00 1011.6
20260502233744 -17 149 0.0 0.0 0.00 0.00 0.00 1011.7
20260502233241 -17 132 0.0 1.6 0.00 0.00 0.00 1012.2
20260502232737 -17 207 6.4 9.7 0.00 0.00 0.00 1012.2
20260502232234 -17 81 1.6 3.2 0.00 0.00 0.00 1012.0
20260502231730 -17 76 0.0 0.0 0.00 0.00 0.00 1012.3
20260502231228 -17 10 3.2 4.8 0.00 0.00 0.00 1012.2
20260502230727 -17 20 8.0 9.7 0.00 0.00 0.00 1012.4
20260502230225 -17 90 1.6 3.2 0.00 0.00 0.00 1012.5
20260502225720 -17 93 0.0 0.0 0.00 0.00 0.00 1012.4
20260502225218 -17 87 0.0 0.0 0.00 0.00 0.00 1012.5
20260502224714 -17 39 0.0 0.0 0.00 0.00 0.00 1012.5
20260502224211 -17 100 0.0 0.0 0.00 0.00 0.00 1012.6
20260502223708 -17 20 11.3 12.9 0.00 0.00 0.00 1012.7
20260502223206 -17 83 8.0 9.7 0.00 0.00 0.00 1012.7
20260502222704 -17 27 3.2 3.2 0.00 0.00 0.00 1012.9
20260502222200 -17 297 4.8 4.8 0.00 0.00 0.00 1012.9
20260502221656 -17 131 0.0 0.0 0.00 0.00 0.00 1013.0
20260502221153 -17 183 4.8 4.8 0.00 0.00 0.00 1012.8
20260502220649 -17 89 1.6 1.6 0.00 0.00 0.00 1012.9
20260502220145 -17 305 9.7 12.9 0.00 0.00 0.00 1013.4
20260502215643 -17 284 4.8 9.7 0.00 0.00 0.00 1013.1
20260502215139 -17 119 1.6 1.6 0.00 0.00 0.00 1013.2
20260502214637 -17 68 3.2 4.8 0.00 0.00 0.00 1013.5
20260502214134 -17 116 0.0 0.0 0.00 0.00 0.00 1013.5
20260502213631 -17 77 0.0 1.6 0.00 0.00 0.00 1013.6
20260502213128 -17 304 8.0 9.7 0.00 0.00 0.00 1013.6
20260502212627 -17 181 6.4 8.0 0.00 0.00 0.00 1013.5
20260502212125 -17 237 1.6 3.2 0.00 0.00 0.00 1013.8
20260502211620 -17 52 3.2 3.2 0.00 0.00 0.00 1014.0
20260502211118 -17 232 0.0 0.0 0.00 0.00 0.00 1013.9
20260502210615 -17 8 1.6 3.2 0.00 0.00 0.00 1014.1
20260502210112 -17 256 8.0 9.7 0.00 0.00 0.00 1014.0
20260502205608 -17 5 4.8 4.8 0.00 0.00 0.00 1014.1
20260502205106 -17 141 0.0 3.2 0.00 0.00 0.00 1014.1
20260502204602 -17 119 8.0 11.3 0.00 0.00 0.00 1014.1
20260502204100 -17 270 4.8 8.0 0.00 0.00 0.00 1014.1
20260502203556 -17 46 4.8 4.8 0.00 0.00 0.00 1014.2
20260502203054 -17 289 6.4 8.0 0.00 0.00 0.00 1014.3
20260502202549 -17 124 0.0 0.0 0.00 0.00 0.00 1014.2
20260502202048 -17 253 6.4 8.0 0.00 0.00 0.00 1014.5
20260502201544 -17 130 1.6 1.6 0.00 0.00 0.00 1014.5
20260502201040 -17 14 8.0 9.7 0.00 0.00 0.00 1014.7
20260502200536 -17 352 14.5 20.9 0.00 0.00 0.00 1014.8
20260502200034 -17 21 19.3 20.9 0.00 0.00 0.00 1014.7
20260502195532 -17 44 4.8 8.0 0.00 0.00 0.00 1014.8
20260502195027 -17 326 9.7 12.9 0.00 0.00 0.00 1014.9
20260502194524 -17 68 12.9 17.7 0.00 0.00 0.00 1014.7
20260502194020 -17 43 12.9 16.1 0.00 0.00 0.00 1014.8
20260502193518 -17 42 19.3 24.1 0.00 0.00 0.00 1015.0
20260502193015 -17 8 11.3 16.1 0.00 0.00 0.00 1014.8
20260502192510 -17 357 11.3 14.5 0.00 0.00 0.00 1014.8
20260502192008 -17 300 6.4 9.7 0.00 0.00 0.00 1015.2
20260502191505 -17 27 14.5 16.1 0.00 0.00 0.00 1015.0
20260502191003 -17 36 14.5 17.7 0.00 0.00 0.00 1014.9
20260502190500 -17 70 4.8 8.0 0.00 0.00 0.00 1015.0
20260502185956 -17 30 4.8 4.8 0.00 0.00 0.00 1015.0
20260502185451 -17 20 9.7 11.3 0.00 0.00 0.00 1015.0
20260502184949 -17 82 3.2 3.2 0.00 0.00 0.00 1015.0
20260502184444 -17 341 9.7 14.5 0.00 0.00 0.00 1015.1
20260502183941 -17 51 11.3 14.5 0.00 0.00 0.00 1015.0
20260502183437 -17 118 4.8 4.8 0.00 0.00 0.00 1015.2
20260502182932 -17 157 1.6 3.2 0.00 0.00 0.00 1015.2
20260502182428 -17 44 9.7 11.3 0.00 0.00 0.00 1015.1
20260502181924 -17 90 0.0 0.0 0.00 0.00 0.00 1015.2
20260502181423 -17 286 9.7 14.5 0.00 0.00 0.00 1015.2
20260502180921 -17 75 3.2 4.8 0.00 0.00 0.00 1015.2
20260502180418 -17 76 8.0 11.3 0.00 0.00 0.00 1015.1
20260502170336 -17 12 9.7 11.3 0.00 0.00 0.00 1016.0
20260502164324 -17 28 11.3 14.5 0.00 0.00 0.00 1015.7
20260502163820 -17 62 17.7 20.9 0.00 0.00 0.00 1015.7
20260502163316 -17 66 11.3 14.5 0.00 0.00 0.00 1015.7
20260502162814 -17 26 12.9 22.5 0.00 0.00 0.00 1015.5
20260502162310 -17 56 8.0 11.3 0.00 0.00 0.00 1015.4
20260502161808 -17 28 11.3 12.9 0.00 0.00 0.00 1015.8
20260502161303 -17 34 11.3 12.9 0.00 0.00 0.00 1015.8
20260502160801 -17 9 9.7 12.9 0.00 0.00 0.00 1015.7
20260502160301 -17 16 11.3 14.5 0.00 0.00 0.00 1015.9
20260502152229 -17 33 9.7 16.1 0.00 0.00 0.00 1015.5
20260502151727 -17 59 9.7 14.5 0.00 0.00 0.00 1015.5
20260502151224 -17 90 11.3 14.5 0.00 0.00 0.00 1015.5
20260502150721 -17 60 14.5 16.1 0.00 0.00 0.00 1015.4
20260502150218 -17 89 6.4 9.7 0.00 0.00 0.00 1015.2
20260502130606 -17 25 16.1 20.9 0.00 0.00 0.00 1014.6
20260502130104 -17 19 17.7 20.9 0.00 0.00 0.00 1014.5
20260502123549 -17 345 11.3 14.5 0.00 0.00 0.00 1014.2
20260502123046 -17 356 8.0 9.7 0.00 0.00 0.00 1014.2
20260502122543 -17 319 11.3 12.9 0.00 0.00 0.00 1014.2
20260502122040 -17 356 11.3 14.5 0.00 0.00 0.00 1014.1
20260502121537 -17 351 11.3 14.5 0.00 0.00 0.00 1013.8
20260502121035 -17 17 14.5 17.7 0.00 0.00 0.00 1014.0
20260502120531 -17 11 12.9 16.1 0.00 0.00 0.00 1014.0
20260502115526 -17 356 22.5 25.7 0.00 0.00 0.00 1013.8
20260502115021 -17 47 12.9 14.5 0.00 0.00 0.00 1014.0
20260502114518 -17 10 12.9 14.5 0.00 0.00 0.00 1013.8
20260502114015 -17 10 11.3 14.5 0.00 0.00 0.00 1013.7
20260502113513 -17 130 3.2 4.8 0.00 0.00 0.00 1013.2
20260502113012 -17 108 3.2 4.8 0.00 0.00 0.00 1013.5
20260502112509 -17 39 6.4 8.0 0.00 0.00 0.00 1013.6
20260502112006 -17 107 0.0 1.6 0.00 0.00 0.00 1013.4
20260502111503 -17 50 3.2 4.8 0.00 0.00 0.00 1013.2
20260502111001 -17 28 8.0 9.7 0.00 0.00 0.00 1013.1
20260502110458 -17 80 4.8 4.8 0.00 0.00 0.00 1013.1
20260502105955 -17 103 0.0 0.0 0.00 0.00 0.00 1013.0
20260502105453 -17 19 3.2 4.8 0.00 0.00 0.00 1012.9
20260502104950 -17 109 0.0 0.0 0.00 0.00 0.00 1012.8
20260502104447 -17 99 1.6 3.2 0.00 0.00 0.00 1012.7
20260502103944 -17 52 6.4 8.0 0.00 0.00 0.00 1012.5
20260502103442 -17 28 8.0 9.7 0.00 0.00 0.00 1012.5
20260502102939 -17 5 4.8 9.7 0.00 0.00 0.00 1012.7
20260502102436 -17 350 11.3 16.1 0.00 0.00 0.00 1012.4
20260502101932 -17 12 8.0 9.7 0.00 0.00 0.00 1012.4
20260502101431 -17 97 0.0 1.6 0.00 0.00 0.00 1012.3
20260502100929 -17 110 0.0 0.0 0.00 0.00 0.00 1012.4
20260502100428 -17 106 0.0 0.0 0.00 0.00 0.00 1012.2
20260502091402 -17 278 6.4 8.0 0.00 0.00 0.00 1011.7
20260502090859 -17 285 11.3 12.9 0.00 0.00 0.00 1011.6
20260502090356 -17 258 8.0 8.0 0.00 0.00 0.00 1011.6
20260502071251 -17 127 0.0 0.0 0.00 0.00 0.00 1011.2
20260502070749 -17 119 0.0 0.0 0.00 0.00 0.00 1011.2
20260502070246 -17 118 0.0 0.0 0.00 0.00 0.00 1011.2
20260502065745 -17 130 0.0 0.0 0.00 0.00 0.00 1011.1
20260502065243 -17 140 1.6 1.6 0.00 0.00 0.00 1011.2
20260502064741 -17 230 4.8 4.8 0.00 0.00 0.00 1011.2
20260502064238 -17 174 1.6 1.6 0.00 0.00 0.00 1011.0
20260502063735 -17 108 0.0 0.0 0.00 0.00 0.00 1011.1
20260502063233 -17 108 0.0 0.0 0.00 0.00 0.00 1011.3
20260502062730 -17 108 0.0 0.0 0.00 0.00 0.00 1011.3
20260502062228 -17 108 0.0 0.0 0.00 0.00 0.00 1011.1
20260502061726 -17 136 1.6 1.6 0.00 0.00 0.00 1011.3
20260502061223 -17 183 3.2 3.2 0.00 0.00 0.00 1011.3
20260502060718 -17 160 0.0 0.0 0.00 0.00 0.00 1011.1
20260502060214 -17 156 1.6 3.2 0.00 0.00 0.00 1011.0
20260502055713 -17 88 0.0 0.0 0.00 0.00 0.00 1011.1
20260502055210 -17 87 0.0 0.0 0.00 0.00 0.00 1011.1
20260502054709 -17 87 0.0 0.0 0.00 0.00 0.00 1010.8
20260502054206 -17 90 0.0 0.0 0.00 0.00 0.00 1010.8
20260502053704 -17 90 0.0 0.0 0.00 0.00 0.00 1011.0
20260502053201 -17 36 6.4 8.0 0.00 0.00 0.00 1011.0
20260502052659 -17 76 4.8 4.8 0.00 0.00 0.00 1011.0
20260502052157 -17 96 1.6 3.2 0.00 0.00 0.00 1010.7
20260502051654 -17 109 3.2 3.2 0.00 0.00 0.00 1010.8
20260502051152 -17 120 0.0 0.0 0.00 0.00 0.00 1010.8
20260502050648 -17 130 0.0 0.0 0.00 0.00 0.00 1010.7
20260502050145 -17 134 0.0 0.0 0.00 0.00 0.00 1010.7
20260502045641 -17 135 0.0 0.0 0.00 0.00 0.00 1010.7
20260502045139 -17 120 0.0 0.0 0.00 0.00 0.00 1011.0
20260502044635 -17 119 1.6 1.6 0.00 0.00 0.00 1010.7
20260502044131 -17 120 1.6 3.2 0.00 0.00 0.00 1010.6
20260502043630 -17 149 0.0 0.0 0.00 0.00 0.00 1010.6
20260502043121 -17 149 0.0 0.0 0.00 0.00 0.00 1010.6
20260502042620 -17 149 0.0 0.0 0.00 0.00 0.00 1010.7
20260502042118 -17 150 0.0 0.0 0.00 0.00 0.00 1010.7
20260502041616 -17 157 1.6 1.6 0.00 0.00 0.00 1010.8
20260502041113 -17 140 0.0 0.0 0.00 0.00 0.00 1010.6
20260502040609 -17 156 0.0 1.6 0.00 0.00 0.00 1010.6
20260502040107 -17 185 0.0 0.0 0.00 0.00 0.00 1010.6
20260502035602 -17 134 0.0 0.0 0.00 0.00 0.00 1010.6
20260502035100 -17 134 0.0 0.0 0.00 0.00 0.00 1010.6
20260502034557 -17 122 0.0 0.0 0.00 0.00 0.00 1010.5
20260502034056 -17 119 1.6 3.2 0.00 0.00 0.00 1010.5
20260502033554 -17 138 0.0 0.0 0.00 0.00 0.00 1010.3
20260502033051 -17 140 0.0 0.0 0.00 0.00 0.00 1010.2
20260502032546 -17 144 0.0 0.0 0.00 0.00 0.00 1010.3
20260502032043 -17 146 0.0 1.6 0.00 0.00 0.00 1010.2
20260502031541 -17 174 1.6 1.6 0.00 0.00 0.00 1010.3
20260502031039 -17 264 1.6 3.2 0.00 0.00 0.00 1010.3
20260502030538 -17 217 0.0 0.0 0.00 0.00 0.00 1010.3
20260502030035 -17 320 4.8 4.8 0.00 0.00 0.00 1010.0
20260502025532 -17 286 8.0 9.7 0.00 0.00 0.00 1010.0
20260502025030 -17 274 11.3 11.3 0.00 0.00 0.00 1010.1
20260502024527 -17 261 9.7 11.3 0.00 0.00 0.00 1009.9
20260502024026 -17 279 9.7 11.3 0.00 0.00 0.00 1009.8
20260502023523 -17 297 8.0 11.3 0.00 0.00 0.00 1009.9
20260502023020 -17 277 11.3 11.3 0.00 0.00 0.00 1009.9
20260502022516 -17 316 4.8 4.8 0.00 0.00 0.00 1009.6
20260502022014 -17 288 3.2 3.2 0.00 0.00 0.00 1009.8
20260502021512 -17 249 8.0 9.7 0.00 0.00 0.00 1009.8
20260502021008 -17 241 8.0 9.7 0.00 0.00 0.00 1009.8
20260502020506 -17 246 8.0 9.7 0.00 0.00 0.00 1009.5
20260502020003 -17 241 8.0 9.7 0.00 0.00 0.00 1009.6
20260502015501 -17 244 8.0 9.7 0.00 0.00 0.00 1009.6
20260502014956 -17 235 8.0 9.7 0.00 0.00 0.00 1009.6
20260502014453 -17 246 8.0 9.7 0.00 0.00 0.00 1009.5